This is the latest recevied weather packets stored in our database for station/object IZ1UQG-N2. If no packets are shown the sender has not sent any weather packets the latest 10 day(s).
| Time | Temp. | Humidity | Pressure | Rain* | Wind** | Luminosity | Snow |
|---|---|---|---|---|---|---|---|
| 1787564762 | 24.44° C | 62% | 1016.1 hPa | 0 mm | - | 267 W/m² | - |
| 1787564702 | 24.44° C | 62% | 1016.1 hPa | 0 mm | - | 267 W/m² | - |
| 1787564642 | 23.89° C | 62% | 1016.2 hPa | 0 mm | - | 216 W/m² | - |
| 1787564583 | 23.89° C | 62% | 1016.2 hPa | 0 mm | - | 260 W/m² | - |
| 1787564532 | 23.89° C | 62% | 1016 hPa | 0 mm | - | 267 W/m² | - |
| 1787564463 | 23.89° C | 61% | 1016.1 hPa | 0 mm | - | 195 W/m² | - |
| 1787564403 | 24.44° C | 60% | 1016.1 hPa | 0 mm | - | 283 W/m² | - |
| 1787564343 | 24.44° C | 60% | 1016 hPa | 0 mm | - | 294 W/m² | - |
| 1787564283 | 24.44° C | 60% | 1016 hPa | 0 mm | - | 473 W/m² | - |
| 1787564222 | 24.44° C | 61% | 1016.2 hPa | 0 mm | - | 445 W/m² | - |
| 1787564162 | 24.44° C | 60% | 1016.1 hPa | 0 mm | - | 374 W/m² | - |
| 1787564102 | 24.44° C | 61% | 1016.1 hPa | 0 mm | - | 577 W/m² | - |
| 1787564043 | 24.44° C | 61% | 1016.1 hPa | 0 mm | - | 763 W/m² | - |
| 1787563983 | 23.89° C | 61% | 1016.1 hPa | 0 mm | - | 633 W/m² | - |
| 1787563923 | 23.89° C | 61% | 1016.1 hPa | 0 mm | - | 770 W/m² | - |
| 1787563862 | 23.89° C | 61% | 1016.2 hPa | 0 mm | - | 483 W/m² | - |
| 1787563802 | 23.89° C | 61% | 1016.2 hPa | 0 mm | - | 355 W/m² | - |
| 1787563742 | 23.89° C | 61% | 1016.3 hPa | 0 mm | - | 290 W/m² | - |
| 1787563682 | 23.89° C | 61% | 1016.2 hPa | 0 mm | - | 292 W/m² | - |
| 1787563622 | 23.89° C | 61% | 1016.2 hPa | 0 mm | - | 294 W/m² | - |
| 1787563562 | 23.89° C | 61% | 1016.3 hPa | 0 mm | - | 171 W/m² | - |
| 1787563503 | 23.89° C | 61% | 1016.2 hPa | 0 mm | - | 281 W/m² | - |
| 1787563443 | 23.89° C | 61% | 1016.2 hPa | 0 mm | - | 285 W/m² | - |
| 1787563383 | 23.89° C | 61% | 1016.2 hPa | 0 mm | - | 299 W/m² | - |
| 1787563322 | 23.89° C | 62% | 1016.3 hPa | 0 mm | - | 280 W/m² | - |
* Rain latest hour (hover to see other rain measurements)
** Current wind speed in m/s (hover to see current wind gust speed)